GEFSNGP_prec_meanprecacc_162.txt.gz
Total_Precipitation_Accumulation
0.26 0.26 0.23 0.18 0.17 0.17 0.20 0.26 0.42 0.62 0.91 1.20 1.37 1.53 1.67 1.68 1.53 1.38 1.31 1.20 1.07 1.05 1.01 0.91 0.90 0.84 0.78 0.71 0.66 0.60 0.57 0.56 0.58 0.60 0.60 0.59 0.59 0.58 0.56 0.54 0.50 0.49 0.49 0.47
0.25 0.24 0.26 0.23 0.21 0.19 0.25 0.32 0.46 0.71 1.08 1.36 1.46 1.53 1.62 1.64 1.52 1.45 1.42 1.38 1.37 1.39 1.37 1.22 1.07 0.98 0.89 0.80 0.74 0.68 0.68 0.68 0.66 0.63 0.60 0.60 0.59 0.59 0.60 0.58 0.54 0.48 0.45 0.45
0.29 0.21 0.32 0.50 0.38 0.33 0.38 0.44 0.58 0.83 1.04 1.17 1.33 1.50 1.52 1.50 1.53 1.55 1.62 1.67 1.67 1.58 1.49 1.34 1.21 1.13 1.04 0.94 0.88 0.85 0.83 0.77 0.70 0.62 0.59 0.57 0.52 0.55 0.59 0.57 0.52 0.47 0.42 0.43
0.37 0.39 0.68 0.65 0.39 0.39 0.53 0.63 0.66 0.73 0.79 0.97 1.21 1.32 1.33 1.39 1.53 1.61 1.62 1.60 1.58 1.47 1.36 1.28 1.25 1.19 1.08 0.97 0.92 0.87 0.83 0.76 0.65 0.57 0.56 0.56 0.56 0.57 0.55 0.52 0.49 0.48 0.46 0.45
0.47 0.66 0.75 0.75 0.48 0.44 0.62 0.82 0.66 0.71 0.74 0.86 0.96 1.11 1.35 1.42 1.50 1.60 1.55 1.50 1.52 1.50 1.41 1.35 1.30 1.18 1.10 1.04 0.94 0.89 0.82 0.68 0.55 0.48 0.49 0.51 0.51 0.50 0.49 0.49 0.47 0.43 0.39 0.41
0.60 0.78 0.91 0.84 0.45 0.34 0.62 1.13 0.82 0.80 0.81 0.83 0.92 1.18 1.29 1.28 1.25 1.29 1.31 1.37 1.47 1.58 1.60 1.52 1.38 1.14 1.05 1.00 0.88 0.77 0.65 0.54 0.48 0.44 0.41 0.39 0.39 0.43 0.44 0.45 0.42 0.36 0.32 0.34
0.73 0.97 1.04 0.54 0.28 0.41 0.90 1.10 0.89 0.86 0.87 0.86 0.97 1.07 0.95 0.95 1.08 1.18 1.29 1.36 1.42 1.47 1.45 1.38 1.25 1.08 1.01 0.93 0.79 0.61 0.49 0.44 0.44 0.39 0.32 0.29 0.34 0.39 0.40 0.36 0.36 0.35 0.35 0.32
0.83 1.05 1.14 0.50 0.34 0.57 0.71 0.61 0.58 0.62 0.66 0.69 0.75 0.80 0.85 0.88 0.96 1.04 1.16 1.25 1.24 1.23 1.19 1.08 0.97 0.91 0.90 0.82 0.62 0.46 0.41 0.39 0.37 0.31 0.19 0.19 0.29 0.32 0.31 0.34 0.33 0.31 0.32 0.30
0.94 1.09 0.79 0.44 0.41 0.41 0.46 0.46 0.45 0.51 0.54 0.57 0.61 0.70 0.83 0.94 1.00 1.00 0.99 1.02 0.98 0.90 0.85 0.83 0.78 0.74 0.71 0.60 0.46 0.40 0.39 0.40 0.36 0.29 0.23 0.20 0.23 0.26 0.26 0.28 0.25 0.22 0.24 0.25
0.81 0.87 0.62 0.42 0.35 0.35 0.34 0.34 0.37 0.47 0.52 0.50 0.51 0.54 0.63 0.73 0.80 0.84 0.83 0.79 0.73 0.67 0.63 0.62 0.58 0.55 0.51 0.40 0.37 0.40 0.42 0.40 0.38 0.36 0.29 0.21 0.20 0.16 0.17 0.20 0.21 0.21 0.22 0.23
0.90 0.89 0.70 0.55 0.41 0.34 0.33 0.34 0.39 0.45 0.43 0.41 0.37 0.39 0.44 0.53 0.58 0.61 0.59 0.56 0.52 0.51 0.47 0.42 0.38 0.36 0.34 0.32 0.31 0.38 0.36 0.30 0.27 0.25 0.23 0.22 0.18 0.10 0.09 0.10 0.09 0.13 0.16 0.16
0.99 0.81 0.68 0.61 0.48 0.38 0.36 0.34 0.34 0.31 0.29 0.34 0.35 0.35 0.39 0.45 0.49 0.48 0.44 0.43 0.45 0.45 0.41 0.37 0.33 0.27 0.24 0.21 0.23 0.31 0.29 0.23 0.18 0.14 0.14 0.14 0.18 0.14 0.06 0.04 0.04 0.04 0.05 0.06
0.59 0.49 0.46 0.42 0.40 0.42 0.34 0.27 0.26 0.25 0.22 0.27 0.30 0.30 0.31 0.33 0.33 0.32 0.33 0.35 0.38 0.38 0.35 0.33 0.29 0.26 0.21 0.16 0.18 0.24 0.26 0.19 0.12 0.09 0.10 0.11 0.17 0.23 0.20 0.11 0.06 0.05 0.04 0.04
0.43 0.45 0.47 0.36 0.30 0.28 0.21 0.20 0.21 0.19 0.19 0.20 0.23 0.24 0.23 0.24 0.25 0.27 0.30 0.28 0.28 0.26 0.24 0.24 0.22 0.20 0.16 0.12 0.13 0.14 0.14 0.09 0.07 0.10 0.09 0.10 0.13 0.15 0.17 0.21 0.23 0.20 0.10 0.05
0.37 0.35 0.33 0.22 0.17 0.16 0.14 0.12 0.14 0.16 0.17 0.19 0.18 0.16 0.16 0.21 0.24 0.24 0.20 0.19 0.20 0.20 0.18 0.19 0.19 0.16 0.11 0.09 0.08 0.09 0.08 0.10 0.09 0.08 0.08 0.08 0.09 0.11 0.12 0.15 0.19 0.20 0.17 0.11
0.26 0.20 0.16 0.14 0.14 0.14 0.13 0.11 0.12 0.13 0.14 0.14 0.15 0.15 0.14 0.17 0.19 0.20 0.16 0.15 0.17 0.17 0.14 0.14 0.14 0.10 0.07 0.06 0.06 0.08 0.05 0.02 0.04 0.05 0.04 0.05 0.06 0.08 0.09 0.11 0.15 0.18 0.19 0.16
0.19 0.17 0.14 0.12 0.11 0.12 0.12 0.11 0.10 0.09 0.10 0.12 0.13 0.12 0.12 0.16 0.18 0.17 0.14 0.13 0.13 0.11 0.09 0.10 0.08 0.06 0.04 0.03 0.03 0.03 0.04 0.01 0.01 0.02 0.04 0.04 0.04 0.05 0.07 0.09 0.14 0.18 0.17 0.14
0.11 0.10 0.10 0.08 0.07 0.07 0.07 0.06 0.06 0.06 0.06 0.07 0.08 0.09 0.12 0.15 0.15 0.12 0.10 0.08 0.08 0.08 0.07 0.05 0.04 0.03 0.03 0.02 0.02 0.01 0.01 0.01 0.02 0.02 0.02 0.02 0.02 0.03 0.05 0.07 0.10 0.13 0.15 0.15
0.06 0.05 0.06 0.05 0.04 0.04 0.04 0.04 0.04 0.03 0.03 0.04 0.07 0.09 0.10 0.10 0.09 0.07 0.06 0.05 0.05 0.08 0.06 0.03 0.03 0.02 0.02 0.01 0.01 0.01 0.01 0.01 0.01 0.01 0.01 0.01 0.01 0.02 0.04 0.06 0.07 0.09 0.11 0.15
0.05 0.04 0.04 0.04 0.03 0.02 0.03 0.03 0.02 0.02 0.02 0.05 0.06 0.05 0.05 0.06 0.06 0.05 0.06 0.06 0.04 0.02 0.02 0.01 0.02 0.02 0.01 0.01 0.00 0.00 0.00 0.01 0.01 0.01 0.01 0.01 0.01 0.02 0.02 0.03 0.05 0.07 0.10 0.14
0.03 0.03 0.03 0.03 0.03 0.02 0.02 0.02 0.02 0.02 0.03 0.04 0.04 0.03 0.03 0.03 0.03 0.04 0.04 0.05 0.04 0.01 0.00 0.00 0.01 0.01 0.01 0.00 0.00 0.00 0.01 0.01 0.01 0.01 0.01 0.01 0.01 0.01 0.01 0.02 0.03 0.04 0.06 0.09
0.04 0.03 0.02 0.02 0.02 0.02 0.03 0.03 0.02 0.02 0.03 0.04 0.03 0.02 0.02 0.02 0.02 0.03 0.03 0.03 0.02 0.00 0.00 0.00 0.00 0.00 0.00 0.00 0.00 0.00 0.01 0.01 0.01 0.01 0.01 0.01 0.01 0.01 0.01 0.01 0.02 0.02 0.04 0.04
0.08 0.05 0.03 0.03 0.03 0.04 0.03 0.03 0.03 0.03 0.03 0.02 0.02 0.01 0.01 0.02 0.02 0.02 0.01 0.01 0.00 0.00 0.00 0.00 0.00 0.00 0.00 0.00 0.00 0.00 0.00 0.00 0.00 0.00 0.00 0.00 0.00 0.00 0.00 0.01 0.01 0.01 0.02 0.02
0.10 0.07 0.05 0.04 0.03 0.04 0.05 0.04 0.04 0.03 0.02 0.02 0.01 0.01 0.01 0.02 0.02 0.01 0.00 0.00 0.00 0.00 0.00 0.00 0.00 0.00 0.00 0.00 0.00 0.00 0.00 0.00 0.00 0.00 0.00 0.00 0.00 0.00 0.00 0.00 0.01 0.01 0.01 0.01
0.12 0.09 0.07 0.07 0.07 0.07 0.06 0.05 0.04 0.03 0.02 0.01 0.01 0.01 0.01 0.01 0.01 0.01 0.00 0.01 0.01 0.00 0.00 0.00 0.00 0.00 0.00 0.00 0.00 0.00 0.00 0.00 0.00 0.00 0.00 0.00 0.00 0.00 0.00 0.00 0.00 0.00 0.00 0.01
0.19 0.16 0.13 0.11 0.11 0.08 0.06 0.05 0.04 0.03 0.01 0.01 0.01 0.01 0.01 0.00 0.00 0.00 0.00 0.00 0.00 0.00 0.00 0.00 0.00 0.00 0.00 0.00 0.01 0.01 0.01 0.01 0.01 0.01 0.01 0.01 0.01 0.01 0.01 0.01 0.01 0.00 0.01 0.01
0.25 0.19 0.16 0.11 0.09 0.06 0.05 0.05 0.03 0.02 0.01 0.01 0.01 0.01 0.01 0.01 0.00 0.00 0.00 0.00 0.00 0.00 0.00 0.00 0.00 0.00 0.01 0.01 0.01 0.01 0.01 0.01 0.01 0.01 0.01 0.01 0.01 0.01 0.01 0.01 0.01 0.01 0.01 0.01

GEFSNGP_prec_meanprecacc_168.txt.gz
Total_Precipitation_Accumulation
0.28 0.28 0.24 0.19 0.18 0.18 0.21 0.27 0.44 0.67 0.98 1.32 1.44 1.61 1.77 1.80 1.64 1.47 1.41 1.31 1.14 1.09 1.05 0.95 0.93 0.88 0.82 0.76 0.71 0.64 0.60 0.58 0.59 0.61 0.61 0.60 0.60 0.58 0.57 0.54 0.50 0.49 0.49 0.47
0.26 0.25 0.27 0.24 0.22 0.20 0.25 0.32 0.48 0.74 1.12 1.41 1.52 1.59 1.70 1.77 1.68 1.57 1.54 1.51 1.49 1.46 1.42 1.28 1.15 1.06 0.96 0.85 0.79 0.73 0.72 0.70 0.68 0.65 0.61 0.61 0.60 0.59 0.60 0.58 0.55 0.48 0.46 0.45
0.31 0.22 0.33 0.51 0.39 0.34 0.40 0.45 0.59 0.85 1.06 1.20 1.36 1.54 1.57 1.59 1.69 1.69 1.75 1.83 1.83 1.72 1.59 1.44 1.33 1.26 1.17 1.04 0.95 0.91 0.88 0.82 0.73 0.65 0.62 0.58 0.53 0.56 0.60 0.58 0.53 0.47 0.43 0.44
0.39 0.42 0.70 0.67 0.40 0.40 0.55 0.65 0.67 0.74 0.80 0.99 1.24 1.38 1.38 1.46 1.66 1.74 1.73 1.72 1.70 1.59 1.48 1.39 1.34 1.27 1.15 1.03 0.97 0.91 0.87 0.80 0.70 0.60 0.58 0.58 0.58 0.59 0.57 0.53 0.50 0.50 0.48 0.47
0.50 0.70 0.78 0.77 0.49 0.45 0.64 0.84 0.68 0.74 0.76 0.89 1.00 1.16 1.39 1.47 1.59 1.74 1.64 1.58 1.61 1.59 1.49 1.43 1.36 1.23 1.14 1.06 0.95 0.90 0.85 0.71 0.58 0.51 0.51 0.52 0.52 0.52 0.51 0.50 0.49 0.45 0.41 0.42
0.63 0.83 0.96 0.87 0.46 0.36 0.64 1.16 0.85 0.83 0.85 0.87 0.96 1.25 1.37 1.33 1.29 1.35 1.39 1.43 1.54 1.65 1.67 1.59 1.44 1.19 1.10 1.03 0.90 0.78 0.66 0.55 0.49 0.45 0.42 0.40 0.40 0.44 0.45 0.46 0.43 0.37 0.33 0.35
0.76 1.04 1.10 0.57 0.29 0.42 0.93 1.15 0.96 0.90 0.91 0.90 1.02 1.11 1.01 1.00 1.10 1.21 1.33 1.42 1.47 1.53 1.52 1.44 1.31 1.12 1.05 0.96 0.82 0.64 0.51 0.46 0.46 0.40 0.32 0.30 0.35 0.40 0.41 0.37 0.37 0.35 0.35 0.33
0.86 1.11 1.19 0.51 0.36 0.59 0.74 0.64 0.63 0.66 0.70 0.73 0.80 0.84 0.90 0.93 0.99 1.07 1.19 1.29 1.29 1.28 1.23 1.12 1.01 0.93 0.92 0.84 0.64 0.48 0.43 0.42 0.40 0.34 0.21 0.20 0.30 0.33 0.32 0.34 0.34 0.32 0.32 0.30
0.98 1.13 0.81 0.45 0.41 0.42 0.47 0.48 0.47 0.54 0.56 0.60 0.65 0.74 0.88 1.00 1.04 1.04 1.02 1.04 1.00 0.92 0.87 0.85 0.80 0.76 0.72 0.62 0.47 0.41 0.41 0.42 0.37 0.31 0.25 0.20 0.24 0.27 0.27 0.29 0.26 0.22 0.24 0.25
0.84 0.90 0.64 0.43 0.36 0.35 0.35 0.35 0.39 0.48 0.53 0.51 0.53 0.56 0.67 0.76 0.84 0.86 0.85 0.80 0.75 0.68 0.65 0.63 0.60 0.56 0.52 0.42 0.38 0.41 0.43 0.40 0.39 0.37 0.30 0.23 0.20 0.17 0.18 0.21 0.22 0.21 0.23 0.24
0.92 0.90 0.71 0.57 0.42 0.35 0.34 0.35 0.41 0.46 0.45 0.42 0.39 0.41 0.47 0.56 0.60 0.62 0.60 0.56 0.53 0.52 0.49 0.45 0.40 0.38 0.36 0.33 0.32 0.38 0.36 0.31 0.28 0.25 0.24 0.23 0.18 0.10 0.09 0.11 0.10 0.13 0.16 0.16
1.01 0.82 0.70 0.62 0.49 0.39 0.36 0.35 0.35 0.32 0.32 0.36 0.37 0.37 0.41 0.47 0.51 0.50 0.45 0.44 0.46 0.47 0.43 0.40 0.36 0.30 0.25 0.22 0.24 0.32 0.30 0.24 0.18 0.15 0.14 0.14 0.19 0.14 0.06 0.04 0.04 0.05 0.06 0.06
0.60 0.50 0.47 0.43 0.41 0.43 0.34 0.28 0.27 0.27 0.27 0.31 0.32 0.31 0.33 0.35 0.35 0.33 0.34 0.36 0.39 0.40 0.37 0.35 0.32 0.29 0.23 0.18 0.19 0.25 0.26 0.20 0.12 0.09 0.10 0.11 0.17 0.23 0.20 0.11 0.06 0.06 0.04 0.04
0.44 0.46 0.48 0.37 0.30 0.28 0.22 0.20 0.21 0.20 0.23 0.24 0.25 0.25 0.25 0.26 0.26 0.27 0.30 0.29 0.29 0.27 0.26 0.26 0.25 0.23 0.19 0.14 0.14 0.15 0.15 0.09 0.08 0.10 0.09 0.11 0.13 0.15 0.18 0.22 0.24 0.20 0.10 0.05
0.38 0.36 0.34 0.22 0.17 0.17 0.14 0.13 0.14 0.17 0.19 0.23 0.20 0.17 0.17 0.22 0.25 0.24 0.21 0.20 0.20 0.20 0.19 0.20 0.20 0.17 0.14 0.10 0.09 0.09 0.09 0.11 0.09 0.08 0.08 0.08 0.09 0.11 0.12 0.15 0.19 0.20 0.17 0.12
0.28 0.21 0.16 0.14 0.14 0.15 0.14 0.12 0.12 0.14 0.16 0.18 0.16 0.16 0.15 0.18 0.20 0.20 0.17 0.15 0.18 0.17 0.15 0.15 0.15 0.12 0.09 0.07 0.07 0.08 0.06 0.03 0.04 0.05 0.04 0.05 0.06 0.08 0.09 0.11 0.16 0.19 0.19 0.17
0.19 0.17 0.15 0.13 0.11 0.12 0.12 0.11 0.10 0.10 0.11 0.14 0.14 0.12 0.13 0.17 0.19 0.18 0.15 0.14 0.14 0.12 0.10 0.11 0.09 0.07 0.06 0.05 0.04 0.04 0.04 0.02 0.01 0.02 0.04 0.04 0.04 0.05 0.07 0.09 0.14 0.18 0.18 0.14
0.12 0.10 0.10 0.08 0.07 0.07 0.07 0.06 0.07 0.06 0.07 0.08 0.09 0.10 0.13 0.16 0.17 0.13 0.10 0.09 0.08 0.08 0.08 0.06 0.04 0.04 0.04 0.03 0.02 0.02 0.01 0.02 0.02 0.02 0.02 0.02 0.02 0.03 0.05 0.07 0.10 0.13 0.15 0.15
0.07 0.05 0.06 0.06 0.05 0.04 0.04 0.04 0.04 0.03 0.03 0.05 0.08 0.12 0.13 0.12 0.11 0.09 0.07 0.06 0.06 0.08 0.07 0.04 0.04 0.03 0.03 0.01 0.01 0.01 0.01 0.01 0.01 0.01 0.01 0.01 0.01 0.02 0.04 0.06 0.07 0.09 0.11 0.15
0.05 0.04 0.04 0.04 0.03 0.03 0.04 0.03 0.02 0.02 0.03 0.05 0.07 0.09 0.11 0.09 0.07 0.06 0.06 0.06 0.04 0.03 0.02 0.02 0.02 0.02 0.02 0.01 0.00 0.01 0.01 0.01 0.01 0.01 0.01 0.01 0.01 0.02 0.02 0.03 0.05 0.08 0.10 0.14
0.04 0.03 0.03 0.03 0.03 0.02 0.02 0.02 0.02 0.02 0.03 0.05 0.04 0.04 0.04 0.04 0.04 0.04 0.05 0.06 0.04 0.01 0.01 0.01 0.02 0.01 0.01 0.00 0.00 0.00 0.01 0.02 0.01 0.01 0.01 0.01 0.02 0.02 0.02 0.03 0.03 0.05 0.07 0.09
0.04 0.03 0.02 0.03 0.02 0.03 0.03 0.03 0.03 0.02 0.03 0.04 0.03 0.02 0.02 0.03 0.03 0.04 0.03 0.03 0.02 0.01 0.01 0.01 0.01 0.01 0.00 0.00 0.00 0.00 0.01 0.01 0.01 0.01 0.01 0.01 0.01 0.01 0.01 0.02 0.02 0.02 0.04 0.05
0.08 0.05 0.04 0.03 0.03 0.04 0.04 0.03 0.03 0.03 0.03 0.02 0.02 0.02 0.02 0.02 0.02 0.02 0.02 0.01 0.00 0.00 0.00 0.00 0.00 0.00 0.00 0.00 0.00 0.00 0.00 0.00 0.01 0.01 0.01 0.00 0.00 0.01 0.01 0.01 0.01 0.02 0.02 0.03
0.10 0.07 0.05 0.04 0.04 0.04 0.05 0.04 0.04 0.03 0.02 0.02 0.01 0.01 0.01 0.02 0.02 0.01 0.00 0.01 0.01 0.01 0.00 0.00 0.00 0.00 0.00 0.00 0.00 0.00 0.00 0.01 0.01 0.01 0.01 0.01 0.00 0.00 0.00 0.00 0.01 0.01 0.01 0.02
0.13 0.10 0.07 0.07 0.08 0.07 0.06 0.05 0.04 0.03 0.02 0.01 0.01 0.01 0.01 0.01 0.01 0.01 0.00 0.01 0.01 0.01 0.00 0.00 0.00 0.00 0.00 0.00 0.00 0.00 0.01 0.01 0.01 0.01 0.01 0.01 0.01 0.00 0.00 0.00 0.00 0.00 0.01 0.01
0.20 0.17 0.13 0.12 0.11 0.08 0.06 0.05 0.04 0.03 0.01 0.01 0.01 0.01 0.01 0.00 0.00 0.00 0.00 0.01 0.00 0.00 0.00 0.00 0.00 0.00 0.00 0.01 0.01 0.01 0.01 0.01 0.01 0.01 0.01 0.01 0.01 0.01 0.01 0.01 0.01 0.01 0.01 0.02
0.25 0.20 0.16 0.11 0.09 0.06 0.05 0.05 0.03 0.02 0.01 0.01 0.01 0.01 0.01 0.01 0.00 0.00 0.00 0.00 0.00 0.00 0.00 0.00 0.00 0.00 0.01 0.01 0.01 0.01 0.01 0.02 0.02 0.01 0.01 0.01 0.01 0.01 0.01 0.01 0.01 0.02 0.02 0.02

GEFSNGP_prec_meanprecacc_174.txt.gz
Total_Precipitation_Accumulation
0.28 0.28 0.24 0.19 0.18 0.18 0.22 0.27 0.45 0.68 0.99 1.33 1.44 1.62 1.77 1.80 1.65 1.48 1.43 1.35 1.22 1.18 1.11 1.00 0.96 0.92 0.86 0.79 0.74 0.67 0.63 0.62 0.63 0.66 0.66 0.64 0.62 0.60 0.58 0.55 0.51 0.49 0.50 0.47
0.26 0.25 0.27 0.24 0.22 0.20 0.26 0.33 0.48 0.74 1.13 1.41 1.53 1.60 1.70 1.78 1.69 1.58 1.55 1.53 1.54 1.55 1.48 1.33 1.18 1.09 0.98 0.88 0.82 0.75 0.75 0.74 0.71 0.68 0.65 0.64 0.63 0.61 0.62 0.59 0.55 0.49 0.46 0.46
0.31 0.22 0.33 0.51 0.39 0.35 0.40 0.46 0.60 0.85 1.07 1.21 1.37 1.56 1.58 1.60 1.70 1.69 1.76 1.84 1.85 1.78 1.66 1.49 1.37 1.30 1.20 1.07 0.97 0.92 0.90 0.84 0.76 0.68 0.65 0.62 0.55 0.58 0.62 0.59 0.54 0.48 0.44 0.45
0.39 0.43 0.70 0.67 0.41 0.41 0.55 0.65 0.67 0.74 0.81 1.00 1.25 1.39 1.40 1.48 1.67 1.75 1.74 1.74 1.72 1.63 1.54 1.45 1.39 1.31 1.18 1.06 0.99 0.93 0.89 0.82 0.71 0.63 0.63 0.63 0.62 0.62 0.60 0.56 0.52 0.52 0.50 0.48
0.51 0.70 0.78 0.78 0.50 0.46 0.65 0.85 0.68 0.74 0.77 0.90 1.02 1.18 1.42 1.49 1.61 1.77 1.66 1.61 1.64 1.63 1.56 1.50 1.41 1.27 1.17 1.08 0.96 0.92 0.87 0.74 0.61 0.54 0.55 0.56 0.56 0.54 0.52 0.52 0.50 0.46 0.42 0.43
0.64 0.83 0.96 0.88 0.47 0.37 0.64 1.17 0.86 0.84 0.86 0.88 0.97 1.26 1.39 1.34 1.31 1.37 1.41 1.48 1.61 1.71 1.74 1.66 1.51 1.25 1.15 1.06 0.92 0.80 0.68 0.58 0.53 0.50 0.46 0.43 0.42 0.46 0.47 0.48 0.45 0.38 0.36 0.38
0.77 1.04 1.11 0.58 0.31 0.43 0.94 1.16 0.96 0.91 0.92 0.91 1.04 1.12 1.02 1.02 1.12 1.23 1.36 1.48 1.58 1.61 1.59 1.53 1.41 1.22 1.12 1.00 0.85 0.67 0.54 0.49 0.49 0.42 0.34 0.31 0.35 0.41 0.42 0.38 0.37 0.36 0.37 0.34
0.87 1.11 1.20 0.52 0.36 0.60 0.75 0.64 0.63 0.67 0.71 0.74 0.82 0.86 0.92 0.95 1.01 1.08 1.22 1.34 1.40 1.37 1.32 1.20 1.11 1.04 0.99 0.88 0.67 0.52 0.47 0.46 0.44 0.37 0.23 0.21 0.30 0.34 0.33 0.36 0.35 0.32 0.33 0.31
0.99 1.14 0.81 0.46 0.42 0.43 0.48 0.48 0.48 0.54 0.57 0.60 0.65 0.75 0.89 1.01 1.06 1.06 1.05 1.08 1.09 1.02 0.95 0.93 0.87 0.84 0.79 0.66 0.50 0.44 0.43 0.44 0.39 0.33 0.27 0.21 0.25 0.28 0.28 0.30 0.26 0.23 0.24 0.26
0.85 0.90 0.64 0.43 0.36 0.36 0.35 0.36 0.39 0.49 0.53 0.52 0.53 0.57 0.68 0.77 0.86 0.89 0.87 0.84 0.81 0.77 0.72 0.71 0.68 0.64 0.58 0.46 0.41 0.43 0.45 0.42 0.39 0.37 0.31 0.23 0.21 0.17 0.19 0.22 0.23 0.22 0.23 0.25
0.93 0.91 0.72 0.57 0.43 0.35 0.35 0.35 0.41 0.47 0.46 0.43 0.39 0.42 0.48 0.58 0.62 0.64 0.61 0.58 0.56 0.58 0.56 0.51 0.47 0.45 0.41 0.36 0.34 0.41 0.38 0.32 0.29 0.26 0.25 0.24 0.19 0.11 0.10 0.11 0.10 0.14 0.16 0.16
1.02 0.83 0.71 0.63 0.50 0.40 0.37 0.35 0.35 0.33 0.33 0.37 0.37 0.37 0.42 0.49 0.53 0.51 0.47 0.46 0.49 0.50 0.48 0.46 0.42 0.36 0.30 0.25 0.26 0.33 0.31 0.25 0.20 0.17 0.16 0.16 0.20 0.15 0.06 0.04 0.04 0.05 0.06 0.06
0.60 0.51 0.48 0.44 0.42 0.44 0.35 0.28 0.27 0.27 0.27 0.31 0.32 0.32 0.34 0.36 0.36 0.34 0.35 0.37 0.41 0.42 0.40 0.40 0.37 0.34 0.28 0.21 0.20 0.26 0.28 0.21 0.14 0.11 0.11 0.12 0.18 0.24 0.20 0.11 0.06 0.06 0.04 0.04
0.44 0.46 0.49 0.38 0.31 0.29 0.22 0.21 0.21 0.21 0.23 0.24 0.25 0.25 0.25 0.27 0.26 0.28 0.31 0.29 0.29 0.28 0.27 0.29 0.28 0.27 0.23 0.18 0.16 0.15 0.16 0.10 0.09 0.11 0.10 0.11 0.14 0.15 0.18 0.22 0.24 0.20 0.10 0.05
0.39 0.37 0.34 0.23 0.18 0.18 0.15 0.13 0.14 0.17 0.19 0.23 0.20 0.17 0.17 0.22 0.25 0.24 0.22 0.20 0.21 0.21 0.20 0.22 0.23 0.20 0.17 0.14 0.11 0.10 0.09 0.11 0.10 0.09 0.09 0.08 0.10 0.11 0.12 0.16 0.19 0.21 0.18 0.12
0.29 0.22 0.17 0.14 0.14 0.15 0.14 0.12 0.12 0.14 0.16 0.18 0.16 0.16 0.15 0.18 0.20 0.21 0.17 0.15 0.18 0.18 0.15 0.16 0.17 0.13 0.11 0.10 0.10 0.10 0.07 0.04 0.05 0.06 0.05 0.05 0.07 0.09 0.09 0.12 0.16 0.19 0.20 0.17
0.20 0.18 0.15 0.13 0.11 0.12 0.12 0.12 0.11 0.10 0.11 0.14 0.14 0.12 0.13 0.17 0.19 0.18 0.15 0.14 0.14 0.12 0.10 0.11 0.11 0.09 0.09 0.09 0.06 0.05 0.05 0.02 0.01 0.03 0.04 0.04 0.04 0.05 0.07 0.09 0.14 0.19 0.18 0.15
0.12 0.11 0.10 0.08 0.07 0.07 0.07 0.06 0.07 0.06 0.07 0.08 0.09 0.11 0.13 0.17 0.17 0.14 0.10 0.09 0.09 0.09 0.08 0.06 0.05 0.06 0.07 0.07 0.05 0.02 0.02 0.02 0.02 0.02 0.02 0.02 0.02 0.03 0.06 0.08 0.10 0.13 0.16 0.17
0.07 0.05 0.06 0.06 0.05 0.04 0.04 0.04 0.04 0.03 0.03 0.06 0.09 0.12 0.14 0.12 0.11 0.09 0.07 0.06 0.06 0.09 0.07 0.04 0.04 0.04 0.06 0.05 0.03 0.02 0.01 0.01 0.01 0.01 0.01 0.01 0.01 0.03 0.04 0.06 0.08 0.10 0.12 0.16
0.06 0.04 0.04 0.04 0.03 0.03 0.04 0.03 0.02 0.02 0.03 0.06 0.07 0.09 0.11 0.09 0.07 0.06 0.06 0.07 0.05 0.03 0.03 0.03 0.03 0.03 0.04 0.02 0.01 0.01 0.01 0.01 0.01 0.01 0.01 0.01 0.02 0.02 0.03 0.03 0.05 0.08 0.11 0.14
0.04 0.03 0.03 0.03 0.03 0.02 0.02 0.02 0.02 0.02 0.04 0.05 0.04 0.04 0.04 0.04 0.04 0.04 0.05 0.07 0.05 0.02 0.01 0.02 0.02 0.02 0.02 0.01 0.00 0.00 0.01 0.02 0.02 0.01 0.01 0.02 0.02 0.02 0.02 0.03 0.03 0.05 0.07 0.09
0.04 0.03 0.02 0.03 0.02 0.03 0.03 0.03 0.03 0.02 0.04 0.04 0.03 0.02 0.02 0.03 0.03 0.04 0.04 0.03 0.03 0.01 0.01 0.01 0.01 0.01 0.01 0.00 0.00 0.00 0.01 0.01 0.01 0.01 0.01 0.01 0.01 0.02 0.02 0.02 0.02 0.03 0.04 0.05
0.08 0.05 0.04 0.03 0.03 0.04 0.04 0.03 0.03 0.03 0.03 0.02 0.02 0.02 0.02 0.02 0.02 0.02 0.02 0.01 0.01 0.01 0.01 0.01 0.00 0.00 0.00 0.00 0.00 0.00 0.00 0.01 0.01 0.01 0.01 0.01 0.01 0.01 0.01 0.01 0.01 0.02 0.02 0.03
0.10 0.07 0.05 0.04 0.04 0.04 0.05 0.04 0.04 0.03 0.02 0.02 0.01 0.01 0.01 0.02 0.02 0.01 0.00 0.01 0.02 0.02 0.00 0.00 0.01 0.01 0.00 0.00 0.00 0.00 0.00 0.01 0.01 0.01 0.01 0.01 0.01 0.00 0.00 0.01 0.01 0.01 0.01 0.02
0.14 0.10 0.07 0.07 0.08 0.07 0.06 0.05 0.04 0.03 0.02 0.01 0.01 0.01 0.01 0.01 0.01 0.01 0.01 0.01 0.02 0.01 0.00 0.00 0.01 0.01 0.00 0.00 0.00 0.01 0.01 0.01 0.01 0.01 0.01 0.01 0.01 0.01 0.01 0.01 0.01 0.01 0.01 0.02
0.21 0.17 0.14 0.12 0.11 0.09 0.06 0.05 0.04 0.03 0.01 0.01 0.01 0.01 0.01 0.01 0.00 0.01 0.01 0.01 0.01 0.00 0.00 0.00 0.01 0.01 0.01 0.01 0.01 0.02 0.01 0.02 0.02 0.02 0.01 0.01 0.01 0.01 0.01 0.01 0.02 0.02 0.02 0.03
0.26 0.20 0.17 0.12 0.09 0.06 0.05 0.05 0.03 0.02 0.01 0.01 0.01 0.01 0.01 0.01 0.00 0.00 0.00 0.00 0.00 0.00 0.00 0.01 0.01 0.01 0.01 0.01 0.01 0.02 0.02 0.02 0.02 0.02 0.02 0.02 0.02 0.02 0.02 0.02 0.03 0.03 0.03 0.03

GEFSNGP_prec_meanprecacc_180.txt.gz
Total_Precipitation_Accumulation
0.29 0.29 0.24 0.19 0.18 0.18 0.22 0.27 0.46 0.69 1.01 1.35 1.46 1.63 1.78 1.81 1.67 1.50 1.45 1.38 1.26 1.22 1.16 1.04 1.00 0.97 0.93 0.84 0.76 0.68 0.64 0.63 0.66 0.70 0.69 0.66 0.64 0.62 0.60 0.57 0.52 0.51 0.52 0.50
0.27 0.26 0.28 0.25 0.22 0.20 0.26 0.33 0.49 0.75 1.14 1.42 1.54 1.61 1.71 1.79 1.70 1.60 1.58 1.55 1.57 1.60 1.53 1.36 1.22 1.14 1.03 0.91 0.84 0.77 0.76 0.75 0.74 0.74 0.70 0.68 0.65 0.64 0.64 0.61 0.56 0.50 0.49 0.48
0.32 0.23 0.35 0.52 0.40 0.35 0.40 0.46 0.61 0.87 1.09 1.22 1.38 1.57 1.59 1.61 1.72 1.72 1.78 1.86 1.88 1.82 1.70 1.52 1.40 1.35 1.25 1.11 1.00 0.95 0.92 0.85 0.78 0.72 0.68 0.65 0.58 0.61 0.64 0.61 0.55 0.49 0.45 0.47
0.41 0.44 0.72 0.68 0.41 0.41 0.56 0.66 0.68 0.75 0.82 1.01 1.26 1.41 1.42 1.50 1.70 1.79 1.77 1.77 1.76 1.67 1.58 1.49 1.44 1.37 1.23 1.10 1.04 0.97 0.91 0.83 0.72 0.64 0.64 0.64 0.64 0.64 0.61 0.57 0.53 0.53 0.51 0.50
0.53 0.72 0.79 0.78 0.50 0.46 0.67 0.86 0.69 0.75 0.78 0.91 1.03 1.20 1.45 1.53 1.66 1.82 1.71 1.65 1.68 1.67 1.59 1.54 1.48 1.36 1.24 1.13 1.00 0.95 0.88 0.74 0.62 0.56 0.56 0.57 0.58 0.56 0.54 0.54 0.52 0.47 0.43 0.44
0.67 0.85 0.98 0.89 0.48 0.38 0.67 1.20 0.88 0.86 0.88 0.89 0.98 1.28 1.42 1.38 1.35 1.41 1.45 1.51 1.64 1.73 1.76 1.68 1.55 1.32 1.21 1.09 0.93 0.81 0.68 0.58 0.53 0.51 0.48 0.45 0.44 0.47 0.48 0.49 0.46 0.39 0.36 0.38
0.79 1.06 1.12 0.58 0.31 0.45 0.98 1.19 0.99 0.93 0.94 0.93 1.05 1.14 1.04 1.03 1.14 1.25 1.39 1.51 1.62 1.64 1.61 1.56 1.46 1.26 1.16 1.03 0.86 0.68 0.55 0.50 0.50 0.44 0.36 0.32 0.36 0.42 0.43 0.39 0.38 0.37 0.37 0.35
0.88 1.13 1.22 0.53 0.37 0.61 0.76 0.66 0.65 0.68 0.72 0.75 0.82 0.86 0.92 0.96 1.03 1.09 1.24 1.38 1.46 1.41 1.34 1.24 1.15 1.08 1.03 0.91 0.69 0.53 0.48 0.47 0.45 0.38 0.24 0.22 0.31 0.35 0.34 0.36 0.35 0.33 0.33 0.31
1.00 1.15 0.82 0.46 0.43 0.43 0.48 0.50 0.49 0.55 0.57 0.61 0.66 0.76 0.90 1.03 1.08 1.08 1.06 1.12 1.14 1.05 0.97 0.96 0.91 0.88 0.84 0.70 0.53 0.46 0.44 0.45 0.40 0.34 0.28 0.22 0.26 0.29 0.29 0.30 0.27 0.23 0.25 0.26
0.87 0.91 0.65 0.45 0.37 0.36 0.36 0.37 0.40 0.50 0.54 0.53 0.54 0.58 0.69 0.78 0.87 0.91 0.89 0.87 0.84 0.79 0.74 0.73 0.71 0.68 0.62 0.51 0.45 0.46 0.47 0.43 0.40 0.39 0.33 0.25 0.22 0.18 0.19 0.23 0.24 0.23 0.24 0.25
0.95 0.92 0.72 0.58 0.43 0.36 0.35 0.35 0.41 0.47 0.46 0.44 0.40 0.42 0.49 0.59 0.63 0.66 0.63 0.60 0.60 0.61 0.58 0.54 0.51 0.51 0.48 0.41 0.38 0.43 0.40 0.33 0.30 0.27 0.27 0.27 0.21 0.12 0.10 0.12 0.11 0.15 0.17 0.17
1.03 0.84 0.72 0.64 0.51 0.41 0.38 0.36 0.36 0.33 0.33 0.37 0.37 0.38 0.42 0.50 0.54 0.53 0.48 0.47 0.51 0.53 0.51 0.49 0.47 0.44 0.39 0.31 0.30 0.36 0.33 0.27 0.22 0.18 0.17 0.17 0.22 0.16 0.07 0.04 0.04 0.05 0.06 0.07
0.61 0.51 0.49 0.45 0.43 0.44 0.36 0.29 0.28 0.27 0.27 0.31 0.32 0.32 0.34 0.37 0.37 0.35 0.36 0.38 0.42 0.44 0.44 0.42 0.41 0.42 0.38 0.29 0.26 0.29 0.30 0.24 0.17 0.15 0.15 0.14 0.19 0.25 0.21 0.12 0.06 0.06 0.05 0.05
0.45 0.47 0.50 0.38 0.31 0.29 0.22 0.21 0.21 0.21 0.23 0.25 0.26 0.25 0.26 0.27 0.27 0.28 0.31 0.30 0.31 0.30 0.30 0.32 0.32 0.33 0.33 0.25 0.20 0.18 0.17 0.12 0.11 0.14 0.13 0.14 0.15 0.16 0.19 0.22 0.24 0.21 0.11 0.06
0.40 0.38 0.35 0.24 0.18 0.18 0.15 0.13 0.15 0.17 0.20 0.23 0.20 0.17 0.17 0.23 0.26 0.25 0.23 0.21 0.22 0.22 0.22 0.24 0.25 0.24 0.24 0.20 0.16 0.12 0.10 0.11 0.11 0.11 0.11 0.10 0.11 0.12 0.13 0.16 0.19 0.21 0.18 0.13
0.30 0.23 0.17 0.15 0.15 0.16 0.14 0.12 0.12 0.14 0.16 0.18 0.16 0.16 0.16 0.19 0.21 0.22 0.18 0.17 0.19 0.19 0.17 0.18 0.19 0.16 0.17 0.15 0.12 0.12 0.08 0.05 0.06 0.06 0.05 0.06 0.08 0.09 0.10 0.12 0.16 0.19 0.20 0.18
0.21 0.19 0.16 0.14 0.12 0.13 0.12 0.12 0.11 0.10 0.11 0.15 0.15 0.13 0.13 0.18 0.19 0.19 0.16 0.15 0.16 0.14 0.12 0.13 0.13 0.13 0.14 0.12 0.08 0.05 0.05 0.02 0.02 0.03 0.04 0.05 0.04 0.05 0.07 0.09 0.14 0.19 0.18 0.15
0.13 0.11 0.10 0.09 0.07 0.07 0.07 0.07 0.07 0.07 0.07 0.09 0.09 0.11 0.14 0.17 0.17 0.14 0.12 0.10 0.10 0.11 0.10 0.08 0.08 0.10 0.12 0.10 0.06 0.03 0.02 0.02 0.02 0.03 0.03 0.02 0.02 0.03 0.06 0.08 0.10 0.13 0.16 0.17
0.07 0.06 0.07 0.06 0.05 0.05 0.05 0.05 0.05 0.03 0.03 0.06 0.09 0.13 0.15 0.13 0.11 0.09 0.09 0.08 0.08 0.10 0.09 0.06 0.07 0.08 0.09 0.07 0.05 0.03 0.02 0.01 0.01 0.02 0.01 0.01 0.01 0.03 0.05 0.06 0.08 0.10 0.12 0.17
0.06 0.04 0.05 0.05 0.03 0.03 0.04 0.03 0.02 0.02 0.03 0.06 0.08 0.09 0.12 0.10 0.08 0.06 0.08 0.08 0.06 0.04 0.04 0.04 0.04 0.06 0.06 0.04 0.02 0.01 0.01 0.01 0.01 0.01 0.01 0.01 0.02 0.02 0.03 0.04 0.06 0.08 0.11 0.15
0.04 0.03 0.03 0.03 0.03 0.02 0.03 0.02 0.03 0.03 0.04 0.06 0.05 0.04 0.04 0.04 0.05 0.05 0.07 0.08 0.06 0.03 0.02 0.02 0.03 0.03 0.03 0.02 0.01 0.01 0.01 0.02 0.02 0.01 0.01 0.02 0.02 0.02 0.03 0.03 0.04 0.05 0.08 0.10
0.04 0.03 0.03 0.03 0.03 0.03 0.04 0.03 0.03 0.03 0.05 0.05 0.03 0.03 0.03 0.03 0.04 0.06 0.05 0.04 0.04 0.02 0.01 0.01 0.01 0.01 0.01 0.01 0.00 0.00 0.01 0.01 0.01 0.01 0.01 0.01 0.02 0.02 0.02 0.02 0.03 0.03 0.05 0.05
0.08 0.06 0.04 0.03 0.03 0.04 0.04 0.04 0.03 0.03 0.03 0.03 0.02 0.02 0.02 0.03 0.04 0.04 0.02 0.01 0.01 0.01 0.01 0.01 0.01 0.01 0.01 0.01 0.00 0.00 0.00 0.01 0.01 0.01 0.01 0.01 0.01 0.01 0.01 0.01 0.02 0.02 0.03 0.03
0.10 0.08 0.05 0.04 0.04 0.05 0.05 0.04 0.04 0.04 0.02 0.02 0.01 0.01 0.02 0.03 0.03 0.02 0.01 0.01 0.02 0.02 0.01 0.00 0.01 0.01 0.01 0.00 0.00 0.00 0.01 0.01 0.01 0.01 0.01 0.01 0.01 0.01 0.01 0.01 0.01 0.02 0.02 0.03
0.14 0.11 0.08 0.08 0.08 0.08 0.06 0.05 0.04 0.03 0.02 0.01 0.01 0.01 0.01 0.02 0.02 0.01 0.01 0.01 0.02 0.01 0.01 0.00 0.01 0.01 0.01 0.00 0.01 0.01 0.01 0.01 0.01 0.01 0.01 0.01 0.01 0.01 0.01 0.01 0.01 0.02 0.02 0.03
0.22 0.18 0.15 0.13 0.12 0.09 0.06 0.05 0.04 0.03 0.02 0.01 0.01 0.01 0.01 0.01 0.01 0.01 0.01 0.01 0.01 0.01 0.00 0.00 0.01 0.01 0.01 0.01 0.01 0.02 0.02 0.02 0.02 0.02 0.02 0.02 0.01 0.02 0.02 0.02 0.02 0.03 0.03 0.03
0.27 0.21 0.18 0.12 0.10 0.06 0.05 0.05 0.03 0.02 0.02 0.01 0.01 0.01 0.01 0.01 0.00 0.00 0.00 0.01 0.00 0.00 0.00 0.01 0.02 0.01 0.01 0.01 0.01 0.02 0.02 0.02 0.02 0.02 0.02 0.02 0.02 0.02 0.02 0.03 0.03 0.04 0.04 0.04

GEFSNGP_prec_meanprecacc_186.txt.gz
Total_Precipitation_Accumulation
0.29 0.30 0.27 0.21 0.19 0.19 0.22 0.28 0.47 0.72 1.05 1.39 1.49 1.67 1.82 1.85 1.70 1.53 1.48 1.42 1.30 1.27 1.21 1.10 1.06 1.01 0.96 0.87 0.79 0.72 0.68 0.67 0.71 0.73 0.72 0.69 0.67 0.64 0.62 0.59 0.54 0.53 0.54 0.52
0.27 0.27 0.28 0.26 0.22 0.21 0.27 0.34 0.50 0.77 1.17 1.44 1.56 1.63 1.74 1.82 1.73 1.62 1.62 1.60 1.62 1.64 1.58 1.43 1.28 1.19 1.08 0.94 0.86 0.80 0.79 0.78 0.78 0.77 0.73 0.70 0.67 0.65 0.65 0.63 0.58 0.52 0.51 0.50
0.34 0.25 0.37 0.56 0.42 0.36 0.41 0.46 0.62 0.89 1.11 1.24 1.41 1.60 1.63 1.65 1.75 1.76 1.83 1.90 1.93 1.87 1.77 1.59 1.48 1.41 1.30 1.15 1.03 0.98 0.95 0.88 0.82 0.75 0.71 0.66 0.59 0.62 0.66 0.62 0.57 0.51 0.47 0.48
0.42 0.46 0.79 0.73 0.43 0.42 0.56 0.67 0.69 0.76 0.84 1.04 1.30 1.45 1.46 1.54 1.74 1.85 1.82 1.81 1.81 1.73 1.66 1.56 1.51 1.43 1.29 1.15 1.07 1.00 0.94 0.86 0.76 0.66 0.65 0.66 0.65 0.66 0.63 0.59 0.55 0.55 0.54 0.52
0.56 0.76 0.83 0.81 0.52 0.48 0.69 0.89 0.70 0.75 0.79 0.93 1.05 1.23 1.50 1.56 1.70 1.87 1.75 1.69 1.74 1.72 1.65 1.61 1.54 1.40 1.30 1.18 1.05 0.99 0.92 0.77 0.65 0.58 0.58 0.58 0.59 0.58 0.56 0.56 0.54 0.49 0.47 0.48
0.71 0.92 1.05 0.94 0.50 0.39 0.69 1.25 0.90 0.87 0.90 0.90 1.00 1.33 1.48 1.43 1.40 1.47 1.52 1.58 1.71 1.79 1.80 1.73 1.60 1.37 1.28 1.15 0.97 0.84 0.70 0.60 0.56 0.54 0.50 0.46 0.46 0.48 0.49 0.51 0.48 0.41 0.39 0.42
0.83 1.13 1.17 0.61 0.33 0.46 1.02 1.26 1.03 0.95 0.97 0.99 1.12 1.21 1.11 1.07 1.18 1.31 1.46 1.58 1.68 1.70 1.67 1.60 1.50 1.31 1.22 1.07 0.90 0.71 0.57 0.52 0.52 0.46 0.38 0.34 0.38 0.43 0.44 0.41 0.40 0.39 0.39 0.37
0.96 1.24 1.30 0.55 0.38 0.64 0.83 0.72 0.68 0.70 0.75 0.80 0.86 0.90 0.96 0.99 1.05 1.13 1.28 1.43 1.51 1.47 1.40 1.29 1.21 1.13 1.07 0.94 0.72 0.56 0.50 0.49 0.48 0.42 0.26 0.23 0.33 0.37 0.36 0.39 0.38 0.35 0.34 0.32
1.12 1.27 0.90 0.50 0.46 0.47 0.52 0.54 0.51 0.57 0.59 0.63 0.69 0.79 0.93 1.05 1.10 1.11 1.09 1.17 1.20 1.11 1.02 1.01 0.97 0.92 0.87 0.74 0.57 0.49 0.48 0.49 0.44 0.37 0.30 0.23 0.27 0.31 0.32 0.33 0.30 0.25 0.26 0.27
0.99 1.03 0.78 0.54 0.47 0.43 0.41 0.40 0.43 0.52 0.56 0.54 0.56 0.61 0.74 0.83 0.91 0.94 0.92 0.91 0.89 0.83 0.77 0.77 0.75 0.72 0.65 0.54 0.49 0.50 0.51 0.47 0.44 0.41 0.34 0.27 0.25 0.21 0.22 0.25 0.26 0.24 0.24 0.26
1.06 1.07 0.88 0.71 0.55 0.44 0.41 0.40 0.45 0.49 0.47 0.45 0.41 0.43 0.50 0.61 0.67 0.69 0.66 0.63 0.63 0.64 0.61 0.56 0.54 0.54 0.50 0.44 0.40 0.47 0.46 0.38 0.33 0.30 0.28 0.29 0.23 0.14 0.12 0.13 0.13 0.16 0.18 0.18
1.13 0.94 0.81 0.71 0.57 0.44 0.40 0.38 0.36 0.33 0.34 0.38 0.38 0.38 0.43 0.51 0.56 0.56 0.52 0.50 0.54 0.56 0.53 0.50 0.49 0.47 0.41 0.34 0.32 0.39 0.39 0.32 0.25 0.21 0.20 0.19 0.23 0.17 0.08 0.05 0.05 0.06 0.07 0.07
0.67 0.54 0.52 0.50 0.46 0.46 0.36 0.29 0.28 0.28 0.28 0.32 0.32 0.32 0.34 0.38 0.39 0.38 0.39 0.41 0.45 0.47 0.45 0.43 0.42 0.45 0.42 0.33 0.29 0.33 0.33 0.27 0.20 0.17 0.17 0.16 0.20 0.26 0.22 0.13 0.07 0.06 0.05 0.05
0.48 0.49 0.52 0.41 0.34 0.31 0.23 0.21 0.22 0.21 0.24 0.25 0.26 0.25 0.26 0.28 0.28 0.31 0.34 0.33 0.33 0.32 0.32 0.33 0.33 0.36 0.37 0.29 0.23 0.20 0.19 0.13 0.13 0.16 0.16 0.17 0.17 0.17 0.19 0.23 0.25 0.21 0.11 0.06
0.43 0.39 0.36 0.25 0.20 0.20 0.16 0.13 0.16 0.18 0.20 0.23 0.20 0.18 0.18 0.24 0.28 0.28 0.26 0.24 0.24 0.24 0.23 0.25 0.27 0.27 0.28 0.24 0.19 0.14 0.12 0.13 0.12 0.13 0.14 0.14 0.14 0.14 0.15 0.17 0.20 0.22 0.19 0.13
0.31 0.24 0.18 0.16 0.16 0.17 0.15 0.12 0.13 0.14 0.16 0.18 0.17 0.16 0.16 0.20 0.23 0.24 0.21 0.18 0.21 0.21 0.19 0.19 0.21 0.19 0.20 0.18 0.15 0.14 0.09 0.06 0.06 0.08 0.07 0.08 0.09 0.10 0.11 0.13 0.17 0.20 0.21 0.18
0.24 0.20 0.17 0.15 0.14 0.14 0.13 0.12 0.11 0.10 0.12 0.15 0.16 0.13 0.14 0.19 0.22 0.20 0.18 0.17 0.17 0.15 0.14 0.15 0.16 0.15 0.16 0.15 0.11 0.07 0.06 0.03 0.02 0.03 0.04 0.05 0.05 0.06 0.08 0.10 0.15 0.19 0.19 0.16
0.15 0.12 0.11 0.10 0.08 0.07 0.08 0.07 0.08 0.07 0.07 0.09 0.10 0.12 0.15 0.19 0.19 0.15 0.13 0.11 0.11 0.12 0.12 0.10 0.10 0.13 0.14 0.12 0.08 0.05 0.03 0.02 0.02 0.03 0.03 0.02 0.02 0.04 0.06 0.08 0.11 0.14 0.16 0.17
0.10 0.07 0.07 0.06 0.05 0.05 0.05 0.05 0.05 0.04 0.03 0.07 0.10 0.14 0.17 0.15 0.13 0.10 0.10 0.09 0.09 0.12 0.10 0.07 0.09 0.11 0.12 0.09 0.07 0.04 0.02 0.01 0.01 0.02 0.02 0.01 0.01 0.03 0.05 0.07 0.09 0.10 0.13 0.17
0.07 0.05 0.05 0.05 0.04 0.04 0.04 0.04 0.03 0.03 0.03 0.07 0.08 0.10 0.14 0.12 0.10 0.08 0.10 0.11 0.08 0.07 0.05 0.06 0.07 0.08 0.08 0.06 0.04 0.02 0.01 0.01 0.01 0.02 0.02 0.01 0.02 0.03 0.04 0.05 0.07 0.09 0.12 0.16
0.04 0.03 0.04 0.03 0.03 0.03 0.04 0.03 0.04 0.03 0.05 0.07 0.05 0.05 0.05 0.06 0.06 0.07 0.08 0.11 0.09 0.05 0.04 0.05 0.05 0.05 0.05 0.03 0.02 0.01 0.01 0.02 0.02 0.01 0.01 0.02 0.02 0.03 0.04 0.05 0.05 0.06 0.08 0.11
0.05 0.04 0.03 0.04 0.03 0.04 0.05 0.04 0.04 0.04 0.05 0.05 0.04 0.03 0.04 0.05 0.06 0.07 0.08 0.07 0.06 0.04 0.03 0.03 0.03 0.03 0.03 0.02 0.01 0.01 0.01 0.01 0.01 0.01 0.01 0.01 0.02 0.03 0.03 0.03 0.04 0.04 0.06 0.07
0.08 0.06 0.05 0.04 0.04 0.05 0.04 0.04 0.04 0.04 0.04 0.03 0.03 0.03 0.04 0.05 0.06 0.07 0.06 0.04 0.02 0.03 0.03 0.03 0.02 0.02 0.02 0.01 0.01 0.01 0.01 0.01 0.01 0.01 0.01 0.01 0.01 0.01 0.02 0.02 0.03 0.04 0.04 0.05
0.12 0.09 0.06 0.05 0.05 0.06 0.06 0.05 0.05 0.05 0.03 0.03 0.03 0.03 0.03 0.05 0.06 0.05 0.02 0.03 0.04 0.03 0.02 0.02 0.02 0.02 0.01 0.01 0.01 0.00 0.01 0.01 0.01 0.01 0.01 0.01 0.01 0.01 0.02 0.02 0.03 0.03 0.04 0.04
0.17 0.13 0.09 0.09 0.09 0.08 0.07 0.06 0.05 0.04 0.02 0.02 0.02 0.02 0.02 0.03 0.03 0.02 0.02 0.03 0.03 0.02 0.01 0.01 0.01 0.01 0.01 0.01 0.01 0.01 0.01 0.02 0.02 0.02 0.02 0.02 0.02 0.02 0.02 0.03 0.03 0.02 0.03 0.03
0.25 0.20 0.16 0.14 0.12 0.09 0.07 0.06 0.05 0.03 0.02 0.02 0.02 0.02 0.02 0.02 0.01 0.01 0.01 0.01 0.01 0.01 0.01 0.01 0.01 0.01 0.01 0.01 0.01 0.02 0.02 0.03 0.02 0.02 0.02 0.02 0.02 0.02 0.02 0.02 0.03 0.03 0.03 0.04
0.30 0.23 0.20 0.14 0.10 0.06 0.05 0.05 0.04 0.03 0.02 0.02 0.02 0.02 0.01 0.01 0.01 0.01 0.01 0.01 0.01 0.01 0.01 0.01 0.02 0.01 0.01 0.01 0.01 0.02 0.02 0.02 0.03 0.03 0.03 0.02 0.02 0.02 0.03 0.03 0.03 0.04 0.04 0.04